Location: Observatoire de Paris
(48.8363°N, 2.3365°E)
Time: 18:54:40
(UTC+01:00)

METEOR M2 - Pass Details

Date: 28 September 2021
Orbit: 820 x 826 km, 98.5° (Epoch: 28 October)

Event Time Altitude Azimuth Distance (km) Brightness Sun altitude
Rises 20:53:49 0° 213° (SSW) 3,340 ? -23.0°
Reaches altitude 10° 20:57:04 10° 234° (SW) 2,414 ? -23.5°
Maximum altitude 21:00:21 16° 272° (W) 2,008 ? -24.0°
Drops below altitude 10° 21:03:39 10° 311° (NW) 2,427 ? -24.5°
Sets 21:06:58 0° 332° (NNW) 3,367 ? -24.9°
